Los Alamitos, CA

1:28 PM PDT on September 20, 2017 (GMT -0700)
Los Alamitos Army Air Field

Weather History for KSLI - June, 2013

Change the Weather History Date:

Monday, June 24, 2013

  Actual Average Record
Temperature  
Mean Temperature 68 °F -  
Max Temperature 75 °F 74 °F 82 °F (2005)
Min Temperature 62 °F 63 °F 57 °F (2012)
Cooling Degree Days 3    
Growing Degree Days 18 (Base 50)    
Moisture  
Dew Point 60 °F    
Average Humidity 82    
Maximum Humidity 100    
Minimum Humidity 44    
Precipitation  
Precipitation 0.00 in - - ()
Sea Level Pressure  
Sea Level Pressure 29.90 in    
Wind  
Wind Speed 6 mph (SSW)    
Max Wind Speed 13 mph    
Max Gust Speed -    
Visibility 10 miles    
Events      
Averages and records for this station are not official NWS values.
T = Trace of Precipitation, MM = Missing Value Source: NWS Daily Summary

Daily Weather History Graph

Daily Weather History Graph

Search for Another Location

Airport or City:

Trip Planner

Search our weather history database for the weather conditions in past years. The results will help you decide how hot, cold, wet, or windy it might be!

Date:

Astronomy

Jun. 24, 2013 Rise Set
Actual Time 5:42 AM PDT 8:06 PM PDT
Civil Twilight 5:13 AM PDT 8:35 PM PDT
Nautical Twilight 4:37 AM PDT 9:11 PM PDT
Astronomical Twilight 3:58 AM PDT 9:50 PM PDT
Moon 9:19 PM PDT (6/24) 7:11 AM PDT (6/24)
Length of Visible Light 15h 22m
Length of Day
14h 23m
Full, 97% of the Moon is Illuminated
Jun 24
Full
Jun 29
Last Quarter
Jul 8
New
Jul 15
First Quarter
Jul 22
Full

Hourly Weather History & Observations

Time (PDT) Temp. Dew Point Humidity Pressure Visibility Wind Dir Wind Speed Gust Speed Precip Events Conditions
12:03 AM 64.4 °F 62.6 °F 94% 29.84 in 10.0 mi SW 5.8 mph - N/A   Scattered Clouds
12:23 AM 64.4 °F 62.6 °F 94% 29.84 in 10.0 mi SSW 8.1 mph - N/A   Mostly Cloudy
12:58 AM 64.2 °F 62.4 °F 94% 29.85 in 10.0 mi SSW 5.8 mph - N/A   Overcast
1:58 AM 64.2 °F 61.7 °F 91% 29.84 in 10.0 mi South 5.8 mph - N/A   Overcast
2:58 AM 63.9 °F 61.7 °F 93% 29.85 in 10.0 mi South 5.8 mph - N/A   Mostly Cloudy
3:23 AM 62.6 °F 62.6 °F 100% 29.84 in 10.0 mi South 3.5 mph - N/A   Scattered Clouds
3:58 AM 63.1 °F 62.8 °F 99% 29.86 in 10.0 mi SSW 2.3 mph - N/A   Clear
4:22 AM 62.6 °F 62.6 °F 100% 29.85 in 10.0 mi South 2.3 mph - N/A   Light Drizzle
4:34 AM 62.6 °F 62.6 °F 100% 29.85 in 10.0 mi South 3.5 mph - N/A   Partly Cloudy
4:58 AM 62.2 °F 62.2 °F 100% 29.87 in 10.0 mi Calm Calm - 0.00 in   Clear
5:21 AM 62.6 °F 62.6 °F 100% 29.87 in 10.0 mi SSW 2.3 mph - N/A   Light Drizzle
5:31 AM 62.6 °F 62.6 °F 100% 29.87 in 10.0 mi SW 2.3 mph - N/A   Clear
5:58 AM 62.4 °F 62.4 °F 100% 29.88 in 10.0 mi SSW 3.5 mph - 0.00 in   Clear
6:58 AM 63.3 °F 63.3 °F 100% 29.90 in 10.0 mi South 3.5 mph - N/A   Clear
7:48 AM 64.4 °F 60.8 °F 88% 29.90 in 7.0 mi SE 5.8 mph - N/A   Overcast
7:58 AM 64.0 °F 62.4 °F 94% 29.92 in 7.0 mi SE 5.8 mph - N/A   Overcast
8:08 AM 64.4 °F 62.6 °F 94% 29.91 in 10.0 mi SSE 5.8 mph - N/A   Overcast
8:58 AM 64.4 °F 63.3 °F 96% 29.94 in 5.0 mi South 8.1 mph - N/A   Overcast
9:58 AM 65.5 °F 59.7 °F 82% 29.96 in 7.0 mi South 6.9 mph - N/A   Overcast
10:58 AM 67.3 °F 57.2 °F 70% 29.96 in 10.0 mi South 8.1 mph - N/A   Overcast
11:58 AM 67.8 °F 55.8 °F 65% 29.95 in 10.0 mi South 8.1 mph - N/A   Overcast
12:58 PM 70.5 °F 53.2 °F 54% 29.96 in 10.0 mi SE 5.8 mph - N/A   Mostly Cloudy
1:58 PM 72.9 °F 51.6 °F 47% 29.94 in 10.0 mi South 6.9 mph - N/A   Mostly Cloudy
2:58 PM 74.8 °F 51.6 °F 44% 29.94 in 10.0 mi SW 10.4 mph - N/A   Scattered Clouds
3:58 PM 74.3 °F 51.6 °F 45% 29.92 in 10.0 mi SSW 12.7 mph - N/A   Clear
4:58 PM 73.9 °F 51.8 °F 46% 29.91 in 10.0 mi SW 9.2 mph - N/A   Clear
5:58 PM 72.7 °F 53.2 °F 50% 29.91 in 10.0 mi SW 10.4 mph - N/A   Clear
6:58 PM 72.9 °F 53.4 °F 50% 29.91 in 10.0 mi SSW 6.9 mph - N/A   Clear
7:58 PM 70.0 °F 57.2 °F 64% 29.92 in 10.0 mi WNW 8.1 mph - N/A   Clear
8:58 PM 67.3 °F 60.3 °F 78% 29.93 in 10.0 mi WNW 6.9 mph - N/A   Clear
9:58 PM 66.0 °F 62.6 °F 89% 29.95 in 10.0 mi WNW 4.6 mph - N/A   Clear
10:58 PM 65.7 °F 63.9 °F 94% 29.95 in 10.0 mi West 3.5 mph - N/A   Clear
11:58 PM 64.2 °F 64.2 °F 100% 29.95 in 10.0 mi WNW 3.5 mph - N/A   Clear